Weather reports worldwide

Advertisment
Ramona, ca, United States of America (2074836): temperature & dewpoint: 06.12.2019 21:00:00 - 12.12.2019 21:00:00 (PST)Ramona, ca, United States of America (2074836): wind speed: 06.12.2019 21:00:00 - 12.12.2019 21:00:00 (PST)Ramona, ca, United States of America (2074836): wind direction: 06.12.2019 21:00:00 - 12.12.2019 21:00:00 (PST)Ramona, ca, United States of America (2074836): reduced air pressure: 06.12.2019 21:00:00 - 12.12.2019 21:00:00 (PST)Ramona, ca, United States of America (2074836): visibility: 06.12.2019 21:00:00 - 12.12.2019 21:00:00 (PST)Ramona, ca, United States of America (2074836): precipitation: 06.12.2019 21:00:00 - 12.12.2019 21:00:00 (PST)
Date & Time tt [°C] td [°C] ff [km/h] ff [kn] dd ppp [hPa] vv [km] rr [mm]
12.12.2019 21:00:00 9,4 8,3 0 0 N 1021,8 10 -
12.12.2019 20:00:00 9,4 7,8 5 3 ENE 1021,9 16 -
12.12.2019 19:00:00 10,0 7,2 0 0 N 1021,8 16 -
12.12.2019 18:00:00 12,2 8,3 5 3 NW 1021,2 16 -
12.12.2019 17:00:00 14,4 8,3 8 4 W 1020,8 16 -
12.12.2019 16:00:00 20,0 8,3 8 4 WNW 1020,6 16 -
12.12.2019 15:00:00 21,7 8,3 15 8 NW 1020,6 16 -
12.12.2019 14:00:00 21,7 6,7 5 3 NW 1020,5 16 -
12.12.2019 13:00:00 21,1 7,8 8 4 WNW 1021,3 16 -
12.12.2019 12:00:00 20,6 9,4 13 7 NW 1022,0 16 -
12.12.2019 11:00:00 20,6 6,1 9 5 WNW 1022,9 16 -
12.12.2019 10:00:00 17,8 7,2 0 0 N 1023,6 16 -
12.12.2019 09:00:00 11,7 7,8 0 0 N 1023,8 16 -
12.12.2019 08:00:00 8,3 6,7 0 0 N 1023,7 16 -
12.12.2019 07:00:00 4,4 3,3 0 0 N 1023,4 16 -
12.12.2019 06:00:00 5,0 3,9 0 0 N 1022,7 16 -
12.12.2019 05:00:00 6,1 5,0 0 0 N 1022,3 16 -
12.12.2019 04:00:00 5,6 4,4 0 0 N 1021,9 11 -
12.12.2019 03:00:00 6,1 5,0 0 0 N 1021,7 15 -
12.12.2019 02:00:00 5,6 5,0 0 0 N 1021,6 4,8 -
12.12.2019 01:00:00 7,2 6,1 0 0 N 1021,4 4,8 -
12.12.2019 00:00:00 7,8 6,7 5 3 ENE 1021,5 10 -
11.12.2019 23:00:00 7,2 6,1 5 3 E 1022,0 8 -
11.12.2019 22:00:00 7,2 6,1 0 0 N 1022,1 3,2 -
11.12.2019 21:00:00 7,8 6,7 0 0 N 1022,0 8 -
11.12.2019 20:00:00 7,2 6,1 0 0 N 1021,9 6 -
11.12.2019 19:00:00 8,9 7,2 0 0 N 1021,8 13 -
11.12.2019 18:00:00 12,2 8,9 5 3 NW 1021,5 16 -
11.12.2019 17:00:00 11,7 8,3 15 8 WNW 1021,1 16 -
11.12.2019 16:00:00 15,6 9,4 13 7 W 1020,0 16 -
11.12.2019 15:00:00 18,3 6,7 15 8 WNW 1020,1 16 -
11.12.2019 14:00:00 18,9 6,1 11 6 WNW 1020,1 16 -
11.12.2019 13:00:00 18,9 5,6 13 7 WNW 1020,6 16 -
11.12.2019 12:00:00 18,9 3,3 13 7 W 1020,8 16 -
11.12.2019 11:00:00 17,8 4,4 9 5 NW 1022,3 16 -
11.12.2019 10:00:00 15,6 4,4 0 0 N 1022,8 16 -
11.12.2019 09:00:00 12,2 4,4 0 0 N 1022,7 16 -
11.12.2019 08:00:00 5,6 3,3 0 0 N 1022,6 16 -
11.12.2019 07:00:00 1,7 0,6 0 0 N 1022,6 16 -
11.12.2019 06:00:00 1,7 0,6 0 0 N 1022,0 16 -
11.12.2019 05:00:00 2,2 1,1 8 4 ESE 1021,5 16 -
11.12.2019 04:00:00 3,9 2,8 0 0 N 1021,2 16 -
11.12.2019 03:00:00 3,9 2,2 8 4 SE 1021,5 15 -
11.12.2019 02:00:00 3,9 2,8 0 0 N 1021,6 10 -
11.12.2019 01:00:00 4,4 3,3 0 0 N 1022,2 13 -
11.12.2019 00:00:00 6,1 4,4 0 0 N 1022,2 15 -
10.12.2019 23:00:00 6,1 5,0 0 0 N 1022,1 15 -
10.12.2019 22:00:00 6,7 6,1 0 0 N 1022,2 13 -
10.12.2019 21:00:00 7,2 6,1 0 0 N 1022,7 16 -
10.12.2019 20:00:00 7,8 6,1 0 0 N 1022,9 16 -
10.12.2019 19:00:00 8,9 6,7 0 0 N 1022,6 16 -
10.12.2019 18:00:00 9,4 6,7 0 0 N 1022,3 16 -
10.12.2019 17:00:00 12,8 8,9 0 0 N 1021,9 16 -
10.12.2019 16:00:00 16,1 9,4 8 4 WNW 1021,7 16 -
10.12.2019 15:00:00 18,3 6,7 8 4 WNW 1021,4 16 -
10.12.2019 14:00:00 17,8 6,1 13 7 WNW 1021,8 16 -
10.12.2019 13:00:00 20,0 6,7 16 9 WNW 1021,9 16 -
10.12.2019 12:00:00 20,0 3,9 8 4 - 1022,3 16 -
10.12.2019 11:00:00 18,9 5,0 0 0 N 1023,4 16 -
10.12.2019 10:00:00 15,6 4,4 5 3 NW 1023,7 16 -
10.12.2019 09:00:00 12,8 6,7 0 0 N 1023,3 16 -
10.12.2019 08:00:00 6,7 5,6 0 0 N 1023,1 15 -
10.12.2019 07:00:00 2,8 1,7 0 0 N 1022,8 8 -
10.12.2019 06:00:00 2,8 1,7 0 0 N 1022,3 16 -
10.12.2019 05:00:00 2,8 1,7 0 0 N 1021,9 15 -
10.12.2019 04:00:00 3,9 2,8 5 3 ENE 1021,2 10 -
10.12.2019 03:00:00 2,8 2,8 0 0 N 1021,3 15 -
10.12.2019 02:00:00 3,9 3,3 0 0 N 1021,2 8 -
10.12.2019 01:00:00 3,9 3,3 0 0 N 1021,2 2,0 -
10.12.2019 00:00:00 4,4 3,9 0 0 N 1020,9 4,8 -
09.12.2019 23:00:00 5,6 4,4 5 3 SSE 1020,7 0,4 -
09.12.2019 22:00:00 5,6 5,0 0 0 N 1020,5 1,6 -
09.12.2019 21:00:00 5,6 5,0 0 0 N 1020,1 0,8 -
09.12.2019 20:00:00 6,7 6,1 0 0 N 1019,8 1,6 -
09.12.2019 19:00:00 8,9 8,3 0 0 N 1019,4 15 -
09.12.2019 18:00:00 10,6 9,4 0 0 N 1018,3 16 -
09.12.2019 17:00:00 12,2 9,4 8 4 WNW 1018,0 16 -
09.12.2019 16:00:00 15,0 10,6 9 5 WSW 1017,1 16 -
09.12.2019 15:00:00 16,1 10,6 18 10 W 1017,1 16 -
09.12.2019 14:00:00 17,2 8,9 15 8 WNW 1016,9 16 -
09.12.2019 13:00:00 16,7 9,4 13 7 WNW 1017,0 16 -
09.12.2019 12:00:00 15,0 8,9 13 7 WNW - 16 -
09.12.2019 11:00:00 15,0 9,4 8 4 SW - 16 -
09.12.2019 10:00:00 13,9 9,4 0 0 N - 16 -
09.12.2019 09:00:00 12,2 8,9 0 0 N 1017,9 16 -
09.12.2019 08:00:00 8,9 8,3 0 0 N 1017,5 15 -
09.12.2019 07:00:00 6,1 6,1 0 0 N 1017,2 - -
09.12.2019 06:00:00 6,7 6,1 0 0 N 1016,5 1,2 -
09.12.2019 05:00:00 7,8 6,7 5 3 ENE 1016,2 6 -
09.12.2019 04:00:00 8,9 8,3 0 0 N 1016,1 1,2 -
09.12.2019 03:00:00 9,4 8,9 0 0 N 1015,9 16 -
09.12.2019 02:00:00 10,0 8,9 0 0 N 1016,0 13 -
09.12.2019 01:00:00 10,6 10,6 5 3 NE 1016,1 15 -
09.12.2019 00:00:00 - - - - - - - -
08.12.2019 23:00:00 - - - - - - - -
08.12.2019 22:00:00 - - - - - - - 0,5
08.12.2019 21:00:00 12,8 11,7 11 6 WSW 1015,5 3,2 3,3
08.12.2019 20:00:00 12,2 11,7 9 5 WSW 1015,4 2,8 1,3
08.12.2019 19:00:00 12,8 11,7 13 7 WSW 1015,7 16 0,0
08.12.2019 18:00:00 13,3 12,2 5 3 WSW 1015,7 11 1,0
08.12.2019 17:00:00 13,3 12,2 8 4 W 1015,7 16 -
08.12.2019 16:00:00 14,4 12,2 11 6 W 1015,8 16 -
08.12.2019 15:00:00 15,0 12,8 13 7 W 1015,7 16 -
08.12.2019 14:00:00 15,6 13,3 16 9 WSW 1015,7 16 -
08.12.2019 13:00:00 15,0 12,8 13 7 WSW 1016,0 16 1,0
08.12.2019 12:00:00 15,6 12,8 13 7 W 1016,9 4,8 0,3
08.12.2019 11:00:00 14,4 13,3 9 5 WSW 1018,1 3,2 1,0
08.12.2019 10:00:00 14,4 13,3 13 7 SW 1018,7 3,2 0,3
08.12.2019 09:00:00 13,9 13,3 8 4 WSW 1018,5 6 0,0
08.12.2019 08:00:00 13,3 13,3 0 0 N 1018,1 10 -
08.12.2019 07:00:00 13,3 12,8 0 0 N 1017,3 1,6 -
08.12.2019 06:00:00 13,3 12,8 0 0 N 1017,0 1,6 -
08.12.2019 05:00:00 13,3 12,2 5 3 ESE 1017,5 0,4 -
08.12.2019 04:00:00 13,9 13,3 9 5 WNW 1017,7 4,0 -
08.12.2019 03:00:00 13,9 12,8 9 5 WNW 1017,9 13 -
08.12.2019 02:00:00 14,4 13,3 0 0 N 1018,2 16 -
08.12.2019 01:00:00 13,9 12,8 0 0 N 1018,4 16 -
08.12.2019 00:00:00 13,9 13,3 0 0 N 1018,8 16 -
07.12.2019 23:00:00 13,9 12,8 8 4 WSW 1019,0 16 -
07.12.2019 22:00:00 14,4 12,8 8 4 ENE 1018,4 16 -
07.12.2019 21:00:00 14,4 12,8 5 3 WSW 1019,0 16 -
07.12.2019 20:00:00 14,4 13,9 0 0 N 1018,7 16 -
07.12.2019 19:00:00 15,0 13,3 0 0 N 1018,5 16 -
07.12.2019 18:00:00 15,0 13,9 5 3 ESE 1017,9 16 -
07.12.2019 17:00:00 15,0 14,4 8 4 ENE 1018,1 16 -
07.12.2019 16:00:00 15,6 14,4 8 4 NNE 1018,8 16 0,0
07.12.2019 15:00:00 15,6 14,4 5 3 NE 1018,9 16 0,3
07.12.2019 14:00:00 15,6 13,9 5 3 ENE 1018,7 16 0,5
07.12.2019 13:00:00 15,0 13,3 0 0 N 1019,1 16 0,0
07.12.2019 12:00:00 14,4 12,8 5 3 ESE 1020,4 6 1,5
07.12.2019 11:00:00 15,0 13,3 11 6 SSE 1021,3 16 0,0
07.12.2019 10:00:00 16,7 13,9 11 6 S 1021,5 16 -
07.12.2019 09:00:00 16,7 15,0 0 0 N 1020,9 16 -
07.12.2019 08:00:00 15,0 13,9 0 0 N 1020,3 16 -
07.12.2019 07:00:00 15,0 13,3 0 0 N 1019,9 16 -
07.12.2019 06:00:00 14,4 13,3 5 3 E 1019,1 16 -
07.12.2019 05:00:00 14,4 12,8 0 0 N 1019,4 16 -
07.12.2019 04:00:00 13,9 12,8 5 3 ENE 1019,2 16 0,3
07.12.2019 03:00:00 13,9 11,1 0 0 N 1019,7 16 0,0
07.12.2019 02:00:00 13,9 11,7 0 0 N 1020,1 16 -
07.12.2019 01:00:00 13,9 11,1 0 0 N 1019,9 16 -
07.12.2019 00:00:00 13,3 10,6 8 4 E 1019,9 16 -
06.12.2019 23:00:00 13,9 9,4 0 0 N 1020,2 16 -
06.12.2019 22:00:00 13,9 11,1 5 3 NE 1020,6 16 -
06.12.2019 21:00:00 12,2 10,6 0 0 N 1020,7 16 -

tt = temperature
td = dewpoint
ff = wind speed
dd = wind direction
ppp = reduced air pressure
vv = visibility
rr = precipitation

Next stations